Time,TemperatureF,DewpointF,PressureIn,WindDirection,WindDirectionDegrees,WindSpeedMPH,WindSpeedGustMPH,Humidity,HourlyPrecipIn,Conditions,Clouds,dailyrainin,SoftwareType,DateUTC
2013-03-20 00:00:00,18.0,-99.9,-100.00,West,273,99.0,-999.0,-999,-99.99,,,-99.99,,2013-03-20 06:00:00,
2013-03-20 01:00:00,18.0,-99.9,-100.00,North,-999,-999.0,-999.0,-999,-99.99,,,-99.99,,2013-03-20 07:00:00,
2013-03-20 01:53:00,18.0,-99.9,-100.00,North,-999,-999.0,-999.0,-999,-99.99,,,-99.99,,2013-03-20 07:53:00,
2013-03-20 02:00:00,16.0,-99.9,-100.00,WSW,250,97.0,-999.0,-999,-99.99,,,-99.99,,2013-03-20 08:00:00,
2013-03-20 03:00:00,15.0,-99.9,-100.00,WSW,237,84.0,-999.0,-999,-99.99,,,-99.99,,2013-03-20 09:00:00,
2013-03-20 04:00:00,19.0,-99.9,-100.00,SSW,209,78.0,-999.0,-999,-99.99,,,-99.99,,2013-03-20 10:00:00,
2013-03-20 05:00:00,27.0,-99.9,-100.00,ESE,110,56.0,-999.0,-999,-99.99,,,-99.99,,2013-03-20 11:00:00,
2013-03-20 06:00:00,29.0,-99.9,-100.00,East,81,33.0,-999.0,-999,-99.99,,,-99.99,,2013-03-20 12:00:00,
2013-03-20 07:00:00,30.0,-99.9,-100.00,ENE,73,27.0,-999.0,-999,-99.99,,,-99.99,,2013-03-20 13:00:00,
2013-03-20 08:00:00,31.0,-99.9,-100.00,ENE,75,29.0,-999.0,-999,-99.99,,,0.00,,2013-03-20 14:00:00,
2013-03-20 09:00:00,35.0,-99.9,-100.00,East,82,31.0,-999.0,-999,-99.99,,,0.00,,2013-03-20 15:00:00,
2013-03-20 10:00:00,41.0,-99.9,-100.00,ENE,76,29.0,-999.0,-999,-99.99,,,0.00,,2013-03-20 16:00:00,
2013-03-20 11:00:00,41.0,-99.9,-100.00,ENE,74,28.0,-999.0,-999,-99.99,,,0.01,,2013-03-20 17:00:00,
2013-03-20 12:00:00,42.0,-99.9,-100.00,ENE,76,31.0,-999.0,-999,-99.99,,,0.00,,2013-03-20 18:00:00,
2013-03-20 13:00:00,41.0,-99.9,-100.00,East,86,31.0,-999.0,-999,-99.99,,,0.00,,2013-03-20 19:00:00,
2013-03-20 14:00:00,44.0,-99.9,-100.00,East,95,36.0,-999.0,-999,-99.99,,,0.00,,2013-03-20 20:00:00,
2013-03-20 15:00:00,45.0,-99.9,-100.00,ESE,106,39.0,-999.0,-999,-99.99,,,-99.99,,2013-03-20 21:00:00,
2013-03-20 15:53:00,45.0,-99.9,-100.00,ESE,106,39.0,-999.0,-999,-99.99,,,-99.99,,2013-03-20 21:53:00,
2013-03-20 16:00:00,40.0,-99.9,-100.00,SE,139,55.0,-999.0,-999,-99.99,,,0.00,,2013-03-20 22:00:00,
2013-03-20 16:43:00,40.0,-99.9,-100.00,SE,139,55.0,-999.0,-999,-99.99,,,0.00,,2013-03-20 22:43:00,
2013-03-20 16:53:00,40.0,-99.9,-100.00,SE,139,55.0,-999.0,-999,-99.99,,,0.00,,2013-03-20 22:53:00,
2013-03-20 17:00:00,39.0,-99.9,-100.00,South,186,68.0,-999.0,-999,-99.99,,,0.00,,2013-03-20 23:00:00,
2013-03-20 18:00:00,39.0,-99.9,-100.00,SSW,198,68.0,-999.0,-999,-99.99,,,-99.99,,2013-03-21 00:00:00,
2013-03-20 19:00:00,38.0,-99.9,-100.00,North,-999,-999.0,-999.0,-999,-99.99,,,-99.99,,2013-03-21 01:00:00,
2013-03-20 19:53:00,38.0,-99.9,-100.00,North,-999,-999.0,-999.0,-999,-99.99,,,-99.99,,2013-03-21 01:53:00,
2013-03-20 20:00:00,37.0,-99.9,-100.00,SW,215,73.0,-999.0,-999,-99.99,,,0.00,,2013-03-21 02:00:00,
2013-03-20 21:00:00,37.0,-99.9,-100.00,SW,222,75.0,-999.0,-999,-99.99,,,0.00,,2013-03-21 03:00:00,
2013-03-20 22:00:00,36.0,-99.9,-100.00,SW,227,77.0,-999.0,-999,-99.99,,,0.01,,2013-03-21 04:00:00,
2013-03-20 23:00:00,36.0,-99.9,-100.00,SW,236,82.0,-999.0,-999,-99.99,,,0.01,,2013-03-21 05:00:00,